Time,TemperatureF,DewpointF,PressureIn,WindDirection,WindDirectionDegrees,WindSpeedMPH,WindSpeedGustMPH,Humidity,HourlyPrecipIn,Conditions,Clouds,dailyrainin,SoftwareType,DateUTC
2013-05-30 00:01:00,73.0,62.8,30.05,ESE,122,2.0,10.0,70,0.00,,,0.00,WUHU216DAVISVP2,2013-05-30 04:01:00,
2013-05-30 00:02:00,73.0,62.8,30.05,SE,143,4.0,8.0,70,0.00,,,0.00,WUHU216DAVISVP2,2013-05-30 04:02:00,
2013-05-30 00:07:00,73.0,62.8,30.05,SSW,205,6.0,12.0,70,0.00,,,0.00,WUHU216DAVISVP2,2013-05-30 04:07:00,
2013-05-30 00:12:00,72.9,62.7,30.06,NW,311,2.0,12.0,70,0.00,,,0.00,WUHU216DAVISVP2,2013-05-30 04:12:00,
2013-05-30 00:17:00,72.8,62.6,30.06,SSE,156,2.0,10.0,70,0.00,,,0.00,WUHU216DAVISVP2,2013-05-30 04:17:00,
2013-05-30 00:22:00,72.6,62.8,30.06,SE,143,0.0,10.0,71,0.00,,,0.00,WUHU216DAVISVP2,2013-05-30 04:22:00,
2013-05-30 00:27:00,72.4,62.2,30.06,SW,219,2.0,8.0,70,0.00,,,0.00,WUHU216DAVISVP2,2013-05-30 04:27:00,
2013-05-30 00:32:00,72.3,62.2,30.06,SSW,206,2.0,8.0,70,0.00,,,0.00,WUHU216DAVISVP2,2013-05-30 04:32:00,
2013-05-30 00:37:00,72.2,62.5,30.06,SSW,195,2.0,6.0,71,0.00,,,0.00,WUHU216DAVISVP2,2013-05-30 04:37:00,
2013-05-30 00:42:00,72.0,62.3,30.06,North,5,0.0,4.0,71,0.00,,,0.00,WUHU216DAVISVP2,2013-05-30 04:42:00,
2013-05-30 00:47:00,71.9,62.2,30.06,South,183,0.0,10.0,71,0.00,,,0.00,WUHU216DAVISVP2,2013-05-30 04:47:00,
2013-05-30 00:52:00,71.8,62.5,30.06,SW,219,0.0,10.0,72,0.00,,,0.00,WUHU216DAVISVP2,2013-05-30 04:52:00,
2013-05-30 00:57:00,71.6,61.9,30.05,SSE,150,0.0,10.0,71,0.00,,,0.00,WUHU216DAVISVP2,2013-05-30 04:57:00,
2013-05-30 01:04:00,71.4,61.9,30.05,SSE,168,0.0,6.0,72,0.00,,,0.00,WUHU216DAVISVP2,2013-05-30 05:04:00,
2013-05-30 01:09:00,71.0,62.1,30.06,South,179,2.0,12.0,73,0.00,,,0.00,WUHU216DAVISVP2,2013-05-30 05:09:00,
2013-05-30 01:14:00,70.8,61.9,30.06,South,177,0.0,12.0,73,0.00,,,0.00,WUHU216DAVISVP2,2013-05-30 05:14:00,
2013-05-30 01:19:00,70.4,62.2,30.06,ESE,121,2.0,4.0,75,0.00,,,0.00,WUHU216DAVISVP2,2013-05-30 05:19:00,
2013-05-30 01:24:00,70.0,61.8,30.06,ESE,121,0.0,4.0,75,0.00,,,0.00,WUHU216DAVISVP2,2013-05-30 05:24:00,
2013-05-30 01:29:00,69.6,61.8,30.06,South,177,0.0,4.0,76,0.00,,,0.00,WUHU216DAVISVP2,2013-05-30 05:29:00,
2013-05-30 01:34:00,69.2,62.2,30.07,South,177,0.0,4.0,78,0.00,,,0.00,WUHU216DAVISVP2,2013-05-30 05:34:00,
2013-05-30 01:39:00,68.9,61.9,30.07,South,175,4.0,6.0,78,0.00,,,0.00,WUHU216DAVISVP2,2013-05-30 05:39:00,
2013-05-30 01:45:00,68.6,61.9,30.07,SSE,166,0.0,10.0,79,0.00,,,0.00,WUHU216DAVISVP2,2013-05-30 05:45:00,
2013-05-30 01:50:00,68.5,61.8,30.07,South,190,0.0,10.0,79,0.00,,,0.00,WUHU216DAVISVP2,2013-05-30 05:50:00,
2013-05-30 01:55:00,68.5,61.5,30.07,SE,130,6.0,10.0,78,0.00,,,0.00,WUHU216DAVISVP2,2013-05-30 05:55:00,
2013-05-30 02:00:00,68.5,61.5,30.07,South,182,0.0,8.0,78,0.00,,,0.00,WUHU216DAVISVP2,2013-05-30 06:00:00,
2013-05-30 02:05:00,68.5,61.8,30.08,South,176,2.0,8.0,79,0.00,,,0.00,WUHU216DAVISVP2,2013-05-30 06:05:00,
2013-05-30 02:10:00,68.5,61.8,30.08,SSW,194,4.0,8.0,79,0.00,,,0.00,WUHU216DAVISVP2,2013-05-30 06:10:00,
2013-05-30 02:15:00,68.6,61.9,30.08,South,188,0.0,8.0,79,0.00,,,0.00,WUHU216DAVISVP2,2013-05-30 06:15:00,
2013-05-30 02:20:00,68.6,61.6,30.08,SSW,213,0.0,12.0,78,0.00,,,0.00,WUHU216DAVISVP2,2013-05-30 06:20:00,
2013-05-30 02:25:00,68.6,61.6,30.08,SSW,210,2.0,12.0,78,0.00,,,0.00,WUHU216DAVISVP2,2013-05-30 06:25:00,
2013-05-30 02:30:00,68.7,61.7,30.08,South,180,4.0,10.0,78,0.00,,,0.00,WUHU216DAVISVP2,2013-05-30 06:30:00,
2013-05-30 02:35:00,68.6,61.9,30.08,SSE,157,0.0,12.0,79,0.00,,,0.00,WUHU216DAVISVP2,2013-05-30 06:35:00,
2013-05-30 02:40:00,68.4,61.7,30.09,South,182,4.0,12.0,79,0.00,,,0.00,WUHU216DAVISVP2,2013-05-30 06:40:00,
2013-05-30 02:45:00,68.3,61.6,30.08,SSE,165,2.0,12.0,79,0.00,,,0.00,WUHU216DAVISVP2,2013-05-30 06:45:00,
2013-05-30 02:50:00,68.3,61.6,30.08,SW,217,0.0,12.0,79,0.00,,,0.00,WUHU216DAVISVP2,2013-05-30 06:50:00,
2013-05-30 02:55:00,68.2,61.5,30.09,South,178,0.0,8.0,79,0.00,,,0.00,WUHU216DAVISVP2,2013-05-30 06:55:00,
2013-05-30 03:00:00,68.0,61.3,30.08,SSW,201,6.0,10.0,79,0.00,,,0.00,WUHU216DAVISVP2,2013-05-30 07:00:00,
2013-05-30 03:05:00,68.0,61.7,30.09,South,169,0.0,10.0,80,0.00,,,0.00,WUHU216DAVISVP2,2013-05-30 07:05:00,
2013-05-30 03:10:00,67.8,61.5,30.09,SSW,201,2.0,8.0,80,0.00,,,0.00,WUHU216DAVISVP2,2013-05-30 07:10:00,
2013-05-30 03:15:00,67.9,61.6,30.09,South,179,0.0,8.0,80,0.00,,,0.00,WUHU216DAVISVP2,2013-05-30 07:15:00,
2013-05-30 03:20:00,67.8,61.5,30.09,SSW,196,2.0,8.0,80,0.00,,,0.00,WUHU216DAVISVP2,2013-05-30 07:20:00,
2013-05-30 03:25:00,67.6,61.3,30.09,ESE,121,0.0,6.0,80,0.00,,,0.00,WUHU216DAVISVP2,2013-05-30 07:25:00,
2013-05-30 03:31:00,67.4,61.4,30.09,South,190,2.0,10.0,81,0.00,,,0.00,WUHU216DAVISVP2,2013-05-30 07:31:00,
2013-05-30 03:36:00,67.4,61.4,30.09,South,183,2.0,10.0,81,0.00,,,0.00,WUHU216DAVISVP2,2013-05-30 07:36:00,
2013-05-30 03:41:00,67.3,61.3,30.09,South,184,0.0,8.0,81,0.00,,,0.00,WUHU216DAVISVP2,2013-05-30 07:41:00,
2013-05-30 03:46:00,67.3,61.0,30.09,SW,224,0.0,6.0,80,0.00,,,0.00,WUHU216DAVISVP2,2013-05-30 07:46:00,
2013-05-30 03:51:00,67.5,61.2,30.09,SSW,194,2.0,4.0,80,0.00,,,0.00,WUHU216DAVISVP2,2013-05-30 07:51:00,
2013-05-30 03:56:00,67.8,61.1,30.09,WSW,238,0.0,10.0,79,0.00,,,0.00,WUHU216DAVISVP2,2013-05-30 07:56:00,
2013-05-30 04:01:00,68.0,61.0,30.09,WSW,248,8.0,10.0,78,0.00,,,0.00,WUHU216DAVISVP2,2013-05-30 08:01:00,
2013-05-30 04:06:00,68.3,61.3,30.09,WSW,248,0.0,8.0,78,0.00,,,0.00,WUHU216DAVISVP2,2013-05-30 08:06:00,
2013-05-30 04:11:00,68.4,61.4,30.09,South,181,0.0,8.0,78,0.00,,,0.00,WUHU216DAVISVP2,2013-05-30 08:11:00,
2013-05-30 04:16:00,68.3,61.3,30.09,ESE,119,0.0,4.0,78,0.00,,,0.00,WUHU216DAVISVP2,2013-05-30 08:16:00,
2013-05-30 04:21:00,68.4,61.4,30.09,SE,142,2.0,8.0,78,0.00,,,0.00,WUHU216DAVISVP2,2013-05-30 08:21:00,
2013-05-30 04:26:00,68.7,61.7,30.09,SW,220,0.0,10.0,78,0.00,,,0.00,WUHU216DAVISVP2,2013-05-30 08:26:00,
2013-05-30 04:31:00,68.8,61.8,30.09,SSW,198,0.0,10.0,78,0.00,,,0.00,WUHU216DAVISVP2,2013-05-30 08:31:00,
2013-05-30 04:36:00,68.8,61.8,30.09,WSW,247,0.0,10.0,78,0.00,,,0.00,WUHU216DAVISVP2,2013-05-30 08:36:00,
2013-05-30 04:41:00,68.8,61.8,30.09,SSW,192,0.0,10.0,78,0.00,,,0.00,WUHU216DAVISVP2,2013-05-30 08:41:00,
2013-05-30 04:46:00,68.9,61.9,30.10,WSW,250,0.0,4.0,78,0.00,,,0.00,WUHU216DAVISVP2,2013-05-30 08:46:00,
2013-05-30 04:51:00,69.0,62.0,30.10,South,185,0.0,8.0,78,0.00,,,0.00,WUHU216DAVISVP2,2013-05-30 08:51:00,
2013-05-30 04:56:00,68.9,61.9,30.10,SSW,211,2.0,8.0,78,0.00,,,0.00,WUHU216DAVISVP2,2013-05-30 08:56:00,
2013-05-30 05:01:00,68.8,62.1,30.10,SSW,204,4.0,8.0,79,0.00,,,0.00,WUHU216DAVISVP2,2013-05-30 09:01:00,
2013-05-30 05:06:00,68.7,62.0,30.10,South,188,0.0,8.0,79,0.00,,,0.00,WUHU216DAVISVP2,2013-05-30 09:06:00,
2013-05-30 05:11:00,68.8,62.1,30.10,South,186,0.0,8.0,79,0.00,,,0.00,WUHU216DAVISVP2,2013-05-30 09:11:00,
2013-05-30 05:16:00,68.6,61.9,30.10,SSW,213,0.0,8.0,79,0.00,,,0.00,WUHU216DAVISVP2,2013-05-30 09:16:00,
2013-05-30 05:21:00,68.5,61.8,30.10,SW,223,0.0,6.0,79,0.00,,,0.00,WUHU216DAVISVP2,2013-05-30 09:21:00,
2013-05-30 05:26:00,68.3,62.0,30.10,SE,145,2.0,8.0,80,0.00,,,0.00,WUHU216DAVISVP2,2013-05-30 09:26:00,
2013-05-30 05:31:00,68.1,62.1,30.10,SW,228,0.0,8.0,81,0.00,,,0.00,WUHU216DAVISVP2,2013-05-30 09:31:00,
2013-05-30 05:37:00,67.8,61.8,30.10,South,176,4.0,4.0,81,0.00,,,0.00,WUHU216DAVISVP2,2013-05-30 09:37:00,
2013-05-30 05:42:00,67.6,62.0,30.10,South,180,0.0,6.0,82,0.00,,,0.00,WUHU216DAVISVP2,2013-05-30 09:42:00,
2013-05-30 05:47:00,67.5,61.9,30.10,SSW,205,2.0,6.0,82,0.00,,,0.00,WUHU216DAVISVP2,2013-05-30 09:47:00,
2013-05-30 05:52:00,67.3,61.7,30.11,South,190,0.0,6.0,82,0.00,,,0.00,WUHU216DAVISVP2,2013-05-30 09:52:00,
2013-05-30 05:57:00,67.2,61.9,30.11,South,178,0.0,8.0,83,0.00,,,0.00,WUHU216DAVISVP2,2013-05-30 09:57:00,
2013-05-30 06:02:00,66.9,61.6,30.11,South,177,2.0,8.0,83,0.00,,,0.00,WUHU216DAVISVP2,2013-05-30 10:02:00,
2013-05-30 06:07:00,66.6,61.6,30.11,SSE,150,0.0,4.0,84,0.00,,,0.00,WUHU216DAVISVP2,2013-05-30 10:07:00,
2013-05-30 06:12:00,66.3,61.7,30.11,SSE,162,2.0,8.0,85,0.00,,,0.00,WUHU216DAVISVP2,2013-05-30 10:12:00,
2013-05-30 06:17:00,66.2,61.6,30.11,South,169,2.0,8.0,85,0.00,,,0.00,WUHU216DAVISVP2,2013-05-30 10:17:00,
2013-05-30 06:20:00,66.1,61.5,30.11,SSW,192,2.0,8.0,85,0.00,,,0.00,WUHU216DAVISVP2,2013-05-30 10:20:00,
2013-05-30 06:25:00,66.1,61.5,30.11,SW,216,2.0,6.0,85,0.00,,,0.00,WUHU216DAVISVP2,2013-05-30 10:25:00,
2013-05-30 06:30:00,66.1,61.5,30.11,SSW,192,2.0,8.0,85,0.00,,,0.00,WUHU216DAVISVP2,2013-05-30 10:30:00,
2013-05-30 06:35:00,66.3,62.0,30.11,ESE,120,2.0,8.0,86,0.00,,,0.00,WUHU216DAVISVP2,2013-05-30 10:35:00,
2013-05-30 06:40:00,66.4,62.1,30.11,SE,144,0.0,8.0,86,0.00,,,0.00,WUHU216DAVISVP2,2013-05-30 10:40:00,
2013-05-30 06:51:00,66.8,62.2,30.11,South,184,0.0,6.0,85,0.00,,,0.00,WUHU216DAVISVP2,2013-05-30 10:51:00,
2013-05-30 06:56:00,67.0,62.4,30.12,SSE,161,4.0,6.0,85,0.00,,,0.00,WUHU216DAVISVP2,2013-05-30 10:56:00,
2013-05-30 07:01:00,67.3,62.7,30.12,SE,132,2.0,6.0,85,0.00,,,0.00,WUHU216DAVISVP2,2013-05-30 11:01:00,
2013-05-30 07:06:00,67.6,63.0,30.12,SSE,160,2.0,6.0,85,0.00,,,0.00,WUHU216DAVISVP2,2013-05-30 11:06:00,
2013-05-30 07:11:00,67.8,63.1,30.12,South,183,4.0,6.0,85,0.00,,,0.00,WUHU216DAVISVP2,2013-05-30 11:11:00,
2013-05-30 07:16:00,68.2,63.2,30.12,SSW,192,0.0,10.0,84,0.00,,,0.00,WUHU216DAVISVP2,2013-05-30 11:16:00,
2013-05-30 07:21:00,68.7,63.4,30.12,SSW,207,0.0,10.0,83,0.00,,,0.00,WUHU216DAVISVP2,2013-05-30 11:21:00,
2013-05-30 07:26:00,69.2,63.9,30.12,SSW,213,0.0,6.0,83,0.00,,,0.00,WUHU216DAVISVP2,2013-05-30 11:26:00,
2013-05-30 07:31:00,69.4,63.7,30.13,SSE,158,2.0,6.0,82,0.00,,,0.00,WUHU216DAVISVP2,2013-05-30 11:31:00,
2013-05-30 07:36:00,69.8,64.1,30.13,SSW,209,0.0,8.0,82,0.00,,,0.00,WUHU216DAVISVP2,2013-05-30 11:36:00,
2013-05-30 07:41:00,70.1,64.7,30.13,SW,234,0.0,8.0,83,0.00,,,0.00,WUHU216DAVISVP2,2013-05-30 11:41:00,
2013-05-30 07:46:00,70.4,64.7,30.13,SSE,150,0.0,6.0,82,0.00,,,0.00,WUHU216DAVISVP2,2013-05-30 11:46:00,
2013-05-30 07:51:00,71.0,64.9,30.13,ESE,123,0.0,4.0,81,0.00,,,0.00,WUHU216DAVISVP2,2013-05-30 11:51:00,
2013-05-30 07:56:00,71.7,64.9,30.13,SSW,207,0.0,6.0,79,0.00,,,0.00,WUHU216DAVISVP2,2013-05-30 11:56:00,
2013-05-30 08:01:00,72.4,65.6,30.13,SW,215,0.0,6.0,79,0.00,,,0.00,WUHU216DAVISVP2,2013-05-30 12:01:00,
2013-05-30 08:06:00,73.2,66.0,30.13,SSW,204,0.0,6.0,78,0.00,,,0.00,WUHU216DAVISVP2,2013-05-30 12:06:00,
2013-05-30 08:11:00,74.0,66.5,30.13,SSW,194,2.0,10.0,77,0.00,,,0.00,WUHU216DAVISVP2,2013-05-30 12:11:00,
2013-05-30 08:16:00,74.6,67.0,30.14,SSE,155,0.0,10.0,77,0.00,,,0.00,WUHU216DAVISVP2,2013-05-30 12:16:00,
2013-05-30 08:21:00,75.3,67.4,30.14,SSW,202,0.0,8.0,76,0.00,,,0.00,WUHU216DAVISVP2,2013-05-30 12:21:00,
2013-05-30 08:26:00,75.7,66.2,30.14,SSW,207,0.0,10.0,72,0.00,,,0.00,WUHU216DAVISVP2,2013-05-30 12:26:00,
2013-05-30 08:32:00,76.1,67.4,30.14,SSW,196,0.0,10.0,74,0.00,,,0.00,WUHU216DAVISVP2,2013-05-30 12:32:00,
2013-05-30 08:37:00,76.3,68.0,30.14,SW,223,0.0,8.0,75,0.00,,,0.00,WUHU216DAVISVP2,2013-05-30 12:37:00,
2013-05-30 08:42:00,76.4,68.8,30.14,WSW,257,2.0,6.0,77,0.00,,,0.00,WUHU216DAVISVP2,2013-05-30 12:42:00,
2013-05-30 08:47:00,76.4,67.3,30.14,South,176,0.0,4.0,73,0.00,,,0.00,WUHU216DAVISVP2,2013-05-30 12:47:00,
2013-05-30 08:52:00,76.5,68.1,30.14,WSW,244,2.0,6.0,75,0.00,,,0.00,WUHU216DAVISVP2,2013-05-30 12:52:00,
2013-05-30 08:57:00,76.6,68.6,30.15,SSE,160,0.0,6.0,76,0.00,,,0.00,WUHU216DAVISVP2,2013-05-30 12:57:00,
2013-05-30 09:02:00,76.6,67.1,30.15,South,182,0.0,6.0,72,0.00,,,0.00,WUHU216DAVISVP2,2013-05-30 13:02:00,
2013-05-30 09:07:00,76.7,67.2,30.15,South,173,2.0,8.0,72,0.00,,,0.00,WUHU216DAVISVP2,2013-05-30 13:07:00,
2013-05-30 09:12:00,76.6,67.5,30.15,South,170,4.0,8.0,73,0.00,,,0.00,WUHU216DAVISVP2,2013-05-30 13:12:00,
2013-05-30 09:17:00,76.4,68.1,30.15,South,170,0.0,4.0,75,0.00,,,0.00,WUHU216DAVISVP2,2013-05-30 13:17:00,
2013-05-30 09:22:00,76.4,67.7,30.15,SSW,210,0.0,4.0,74,0.00,,,0.00,WUHU216DAVISVP2,2013-05-30 13:22:00,
2013-05-30 09:27:00,76.3,67.6,30.15,SW,217,0.0,8.0,74,0.00,,,0.00,WUHU216DAVISVP2,2013-05-30 13:27:00,
2013-05-30 09:32:00,76.5,68.1,30.15,WSW,241,0.0,8.0,75,0.00,,,0.00,WUHU216DAVISVP2,2013-05-30 13:32:00,
2013-05-30 09:37:00,76.9,68.2,30.15,SSW,199,0.0,8.0,74,0.00,,,0.00,WUHU216DAVISVP2,2013-05-30 13:37:00,
2013-05-30 09:42:00,77.6,68.1,30.15,SSW,192,2.0,8.0,72,0.00,,,0.00,WUHU216DAVISVP2,2013-05-30 13:42:00,
2013-05-30 09:47:00,78.2,69.0,30.15,SSE,168,2.0,10.0,73,0.00,,,0.00,WUHU216DAVISVP2,2013-05-30 13:47:00,
2013-05-30 09:52:00,78.7,68.7,30.15,WSW,243,2.0,10.0,71,0.00,,,0.00,WUHU216DAVISVP2,2013-05-30 13:52:00,
2013-05-30 09:57:00,79.4,68.6,30.15,WSW,238,0.0,8.0,69,0.00,,,0.00,WUHU216DAVISVP2,2013-05-30 13:57:00,
2013-05-30 10:02:00,79.9,68.6,30.15,SW,214,6.0,18.0,68,0.00,,,0.00,WUHU216DAVISVP2,2013-05-30 14:02:00,
2013-05-30 10:07:00,80.3,68.6,30.15,South,190,0.0,18.0,67,0.00,,,0.00,WUHU216DAVISVP2,2013-05-30 14:07:00,
2013-05-30 10:12:00,80.6,69.3,30.14,SSW,202,2.0,12.0,68,0.00,,,0.00,WUHU216DAVISVP2,2013-05-30 14:12:00,
2013-05-30 10:18:00,81.0,68.4,30.14,NW,309,2.0,14.0,65,0.00,,,0.00,WUHU216DAVISVP2,2013-05-30 14:18:00,
2013-05-30 10:23:00,81.5,69.7,30.14,WSW,238,14.0,14.0,67,0.00,,,0.00,WUHU216DAVISVP2,2013-05-30 14:23:00,
2013-05-30 10:28:00,81.8,68.7,30.14,North,355,0.0,18.0,64,0.00,,,0.00,WUHU216DAVISVP2,2013-05-30 14:28:00,
2013-05-30 10:33:00,82.5,69.8,30.14,WNW,300,4.0,18.0,65,0.00,,,0.00,WUHU216DAVISVP2,2013-05-30 14:33:00,
2013-05-30 10:38:00,82.9,69.3,30.14,West,259,4.0,10.0,63,0.00,,,0.00,WUHU216DAVISVP2,2013-05-30 14:38:00,
2013-05-30 10:43:00,82.8,69.6,30.14,NNW,334,0.0,18.0,64,0.00,,,0.00,WUHU216DAVISVP2,2013-05-30 14:43:00,
2013-05-30 10:48:00,82.8,68.2,30.14,NW,325,4.0,18.0,61,0.00,,,0.00,WUHU216DAVISVP2,2013-05-30 14:48:00,
2013-05-30 10:53:00,82.4,68.3,30.14,West,276,8.0,14.0,62,0.00,,,0.00,WUHU216DAVISVP2,2013-05-30 14:53:00,
2013-05-30 10:58:00,82.2,68.1,30.14,SW,233,0.0,10.0,62,0.00,,,0.00,WUHU216DAVISVP2,2013-05-30 14:58:00,
2013-05-30 11:03:00,82.4,68.8,30.14,East,97,0.0,12.0,63,0.00,,,0.00,WUHU216DAVISVP2,2013-05-30 15:03:00,
2013-05-30 11:08:00,82.5,69.4,30.14,South,181,4.0,12.0,64,0.00,,,0.00,WUHU216DAVISVP2,2013-05-30 15:08:00,
2013-05-30 11:13:00,82.4,68.8,30.14,SSW,202,0.0,8.0,63,0.00,,,0.00,WUHU216DAVISVP2,2013-05-30 15:13:00,
2013-05-30 11:18:00,82.2,69.5,30.14,NW,304,0.0,6.0,65,0.00,,,0.00,WUHU216DAVISVP2,2013-05-30 15:18:00,
2013-05-30 11:23:00,82.2,69.1,30.14,SSW,201,4.0,6.0,64,0.00,,,0.00,WUHU216DAVISVP2,2013-05-30 15:23:00,
2013-05-30 11:28:00,81.8,67.3,30.14,WSW,248,6.0,12.0,61,0.00,,,0.00,WUHU216DAVISVP2,2013-05-30 15:28:00,
2013-05-30 11:33:00,81.5,68.4,30.14,SSW,209,0.0,12.0,64,0.00,,,0.00,WUHU216DAVISVP2,2013-05-30 15:33:00,
2013-05-30 11:38:00,81.1,68.5,30.14,West,269,2.0,12.0,65,0.00,,,0.00,WUHU216DAVISVP2,2013-05-30 15:38:00,
2013-05-30 11:43:00,80.8,68.2,30.14,NW,304,0.0,12.0,65,0.00,,,0.00,WUHU216DAVISVP2,2013-05-30 15:43:00,
2013-05-30 11:48:00,80.7,66.7,30.13,West,269,0.0,14.0,62,0.00,,,0.00,WUHU216DAVISVP2,2013-05-30 15:48:00,
2013-05-30 11:53:00,80.7,68.5,30.14,ESE,105,0.0,14.0,66,0.00,,,0.00,WUHU216DAVISVP2,2013-05-30 15:53:00,
2013-05-30 11:58:00,80.6,67.1,30.13,WNW,291,0.0,10.0,63,0.00,,,0.00,WUHU216DAVISVP2,2013-05-30 15:58:00,
2013-05-30 12:03:00,80.7,68.1,30.14,NNE,26,0.0,10.0,65,0.00,,,0.00,WUHU216DAVISVP2,2013-05-30 16:03:00,
2013-05-30 12:08:00,80.8,68.6,30.13,SSW,205,2.0,6.0,66,0.00,,,0.00,WUHU216DAVISVP2,2013-05-30 16:08:00,
2013-05-30 12:13:00,80.8,67.3,30.13,NW,305,4.0,14.0,63,0.00,,,0.00,WUHU216DAVISVP2,2013-05-30 16:13:00,
2013-05-30 12:18:00,81.6,68.5,30.13,WSW,254,0.0,14.0,64,0.00,,,0.00,WUHU216DAVISVP2,2013-05-30 16:18:00,
2013-05-30 12:23:00,82.3,67.3,30.13,NNE,13,4.0,14.0,60,0.00,,,0.00,WUHU216DAVISVP2,2013-05-30 16:23:00,
2013-05-30 12:29:00,82.7,68.6,30.12,WSW,240,4.0,14.0,62,0.00,,,0.00,WUHU216DAVISVP2,2013-05-30 16:29:00,
2013-05-30 12:34:00,82.9,67.8,30.12,SW,227,2.0,14.0,60,0.00,,,0.00,WUHU216DAVISVP2,2013-05-30 16:34:00,
2013-05-30 12:39:00,82.9,68.3,30.12,SW,221,4.0,14.0,61,0.00,,,0.00,WUHU216DAVISVP2,2013-05-30 16:39:00,
2013-05-30 12:44:00,82.6,68.0,30.12,WSW,241,0.0,10.0,61,0.00,,,0.00,WUHU216DAVISVP2,2013-05-30 16:44:00,
2013-05-30 12:49:00,82.3,67.8,30.12,SSW,213,2.0,10.0,61,0.00,,,0.00,WUHU216DAVISVP2,2013-05-30 16:49:00,
2013-05-30 12:54:00,82.3,68.2,30.12,West,259,0.0,10.0,62,0.00,,,0.00,WUHU216DAVISVP2,2013-05-30 16:54:00,
2013-05-30 12:59:00,82.5,68.4,30.12,SW,215,4.0,10.0,62,0.00,,,0.00,WUHU216DAVISVP2,2013-05-30 16:59:00,
2013-05-30 13:04:00,83.0,68.9,30.12,South,171,4.0,10.0,62,0.00,,,0.00,WUHU216DAVISVP2,2013-05-30 17:04:00,
2013-05-30 13:09:00,83.1,68.0,30.12,West,265,0.0,16.0,60,0.00,,,0.00,WUHU216DAVISVP2,2013-05-30 17:09:00,
2013-05-30 13:14:00,83.4,68.3,30.12,SSW,211,0.0,16.0,60,0.00,,,0.00,WUHU216DAVISVP2,2013-05-30 17:14:00,
2013-05-30 13:19:00,83.5,67.4,30.13,SSE,163,6.0,16.0,58,0.00,,,0.00,WUHU216DAVISVP2,2013-05-30 17:19:00,
2013-05-30 13:24:00,83.6,68.0,30.12,NNE,14,6.0,16.0,59,0.00,,,0.00,WUHU216DAVISVP2,2013-05-30 17:24:00,
2013-05-30 13:29:00,83.7,67.6,30.12,SSW,199,8.0,12.0,58,0.00,,,0.00,WUHU216DAVISVP2,2013-05-30 17:29:00,
2013-05-30 13:34:00,83.6,67.5,30.12,North,11,4.0,12.0,58,0.00,,,0.00,WUHU216DAVISVP2,2013-05-30 17:34:00,
2013-05-30 13:39:00,83.9,67.8,30.12,SE,143,0.0,12.0,58,0.00,,,0.00,WUHU216DAVISVP2,2013-05-30 17:39:00,
2013-05-30 13:44:00,84.3,67.6,30.13,SW,229,4.0,16.0,57,0.00,,,0.00,WUHU216DAVISVP2,2013-05-30 17:44:00,
2013-05-30 13:49:00,84.4,66.7,30.13,East,96,0.0,16.0,55,0.00,,,0.00,WUHU216DAVISVP2,2013-05-30 17:49:00,
2013-05-30 13:55:00,84.8,67.6,30.12,SSE,158,0.0,14.0,56,0.00,,,0.00,WUHU216DAVISVP2,2013-05-30 17:55:00,
2013-05-30 14:00:00,85.0,67.2,30.12,SE,134,10.0,18.0,55,0.00,,,0.00,WUHU216DAVISVP2,2013-05-30 18:00:00,
2013-05-30 14:05:00,85.2,66.9,30.12,WSW,252,4.0,18.0,54,0.00,,,0.00,WUHU216DAVISVP2,2013-05-30 18:05:00,
2013-05-30 14:10:00,84.7,67.0,30.12,SSW,208,4.0,12.0,55,0.00,,,0.00,WUHU216DAVISVP2,2013-05-30 18:10:00,
2013-05-30 14:15:00,84.8,67.1,30.12,SSE,160,4.0,12.0,55,0.00,,,0.00,WUHU216DAVISVP2,2013-05-30 18:15:00,
2013-05-30 14:20:00,85.5,68.2,30.12,SSE,157,4.0,8.0,56,0.00,,,0.00,WUHU216DAVISVP2,2013-05-30 18:20:00,
2013-05-30 14:25:00,86.3,66.2,30.12,SSE,165,8.0,14.0,51,0.00,,,0.00,WUHU216DAVISVP2,2013-05-30 18:25:00,
2013-05-30 14:30:00,86.8,64.9,30.11,South,176,22.0,22.0,48,0.00,,,0.00,WUHU216DAVISVP2,2013-05-30 18:30:00,
2013-05-30 14:35:00,86.7,64.8,30.11,South,171,8.0,22.0,48,0.00,,,0.00,WUHU216DAVISVP2,2013-05-30 18:35:00,
2013-05-30 14:40:00,87.0,65.1,30.11,SSE,164,14.0,22.0,48,0.00,,,0.00,WUHU216DAVISVP2,2013-05-30 18:40:00,
2013-05-30 14:45:00,87.0,62.5,30.12,SSW,194,6.0,20.0,44,0.00,,,0.00,WUHU216DAVISVP2,2013-05-30 18:45:00,
2013-05-30 14:50:00,87.1,63.2,30.11,South,186,0.0,20.0,45,0.00,,,0.00,WUHU216DAVISVP2,2013-05-30 18:50:00,
2013-05-30 14:55:00,87.1,63.2,30.11,SSE,157,10.0,26.0,45,0.00,,,0.00,WUHU216DAVISVP2,2013-05-30 18:55:00,
2013-05-30 15:00:00,87.2,62.7,30.11,SW,231,4.0,26.0,44,0.00,,,0.00,WUHU216DAVISVP2,2013-05-30 19:00:00,
2013-05-30 15:05:00,87.3,63.4,30.11,NW,317,6.0,22.0,45,0.00,,,0.00,WUHU216DAVISVP2,2013-05-30 19:05:00,
2013-05-30 15:10:00,87.1,61.9,30.10,WNW,291,4.0,22.0,43,0.00,,,0.00,WUHU216DAVISVP2,2013-05-30 19:10:00,
2013-05-30 15:15:00,87.2,62.0,30.10,SSW,205,4.0,16.0,43,0.00,,,0.00,WUHU216DAVISVP2,2013-05-30 19:15:00,
2013-05-30 15:20:00,87.8,63.9,30.10,WSW,257,4.0,8.0,45,0.00,,,0.00,WUHU216DAVISVP2,2013-05-30 19:20:00,
2013-05-30 15:25:00,88.7,64.0,30.10,South,180,6.0,12.0,44,0.00,,,0.00,WUHU216DAVISVP2,2013-05-30 19:25:00,
2013-05-30 15:30:00,88.7,62.0,30.10,SSW,196,6.0,16.0,41,0.00,,,0.00,WUHU216DAVISVP2,2013-05-30 19:30:00,
2013-05-30 15:35:00,88.2,61.5,30.10,WSW,246,2.0,16.0,41,0.00,,,0.00,WUHU216DAVISVP2,2013-05-30 19:35:00,
2013-05-30 15:40:00,87.9,61.2,30.09,ENE,64,2.0,14.0,41,0.00,,,0.00,WUHU216DAVISVP2,2013-05-30 19:40:00,
2013-05-30 15:45:00,88.0,61.3,30.09,NNW,330,2.0,16.0,41,0.00,,,0.00,WUHU216DAVISVP2,2013-05-30 19:45:00,
2013-05-30 15:50:00,87.8,61.9,30.09,SSE,163,2.0,16.0,42,0.00,,,0.00,WUHU216DAVISVP2,2013-05-30 19:50:00,
2013-05-30 15:55:00,87.7,61.8,30.09,South,186,0.0,16.0,42,0.00,,,0.00,WUHU216DAVISVP2,2013-05-30 19:55:00,
2013-05-30 16:00:00,88.3,63.0,30.09,SW,221,2.0,20.0,43,0.00,,,0.00,WUHU216DAVISVP2,2013-05-30 20:00:00,
2013-05-30 16:05:00,88.4,64.4,30.09,NW,313,0.0,20.0,45,0.00,,,0.00,WUHU216DAVISVP2,2013-05-30 20:05:00,
2013-05-30 16:11:00,88.7,60.5,30.09,SSW,209,6.0,22.0,39,0.00,,,0.00,WUHU216DAVISVP2,2013-05-30 20:11:00,
2013-05-30 16:16:00,88.3,60.9,30.09,South,173,16.0,22.0,40,0.00,,,0.00,WUHU216DAVISVP2,2013-05-30 20:16:00,
2013-05-30 16:21:00,88.2,59.3,30.08,NE,37,4.0,18.0,38,0.00,,,0.00,WUHU216DAVISVP2,2013-05-30 20:21:00,
2013-05-30 16:26:00,88.1,59.2,30.08,SW,217,2.0,16.0,38,0.00,,,0.00,WUHU216DAVISVP2,2013-05-30 20:26:00,
2013-05-30 16:31:00,88.5,59.6,30.08,South,180,8.0,14.0,38,0.00,,,0.00,WUHU216DAVISVP2,2013-05-30 20:31:00,
2013-05-30 16:36:00,88.3,57.9,30.08,SE,137,10.0,22.0,36,0.00,,,0.00,WUHU216DAVISVP2,2013-05-30 20:36:00,
2013-05-30 16:41:00,88.4,58.0,30.08,SW,219,6.0,22.0,36,0.00,,,0.00,WUHU216DAVISVP2,2013-05-30 20:41:00,
2013-05-30 16:46:00,87.9,57.5,30.08,SSW,200,8.0,22.0,36,0.00,,,0.00,WUHU216DAVISVP2,2013-05-30 20:46:00,
2013-05-30 16:51:00,87.6,58.8,30.08,West,259,2.0,22.0,38,0.00,,,0.00,WUHU216DAVISVP2,2013-05-30 20:51:00,
2013-05-30 16:56:00,87.7,58.1,30.08,West,263,4.0,14.0,37,0.00,,,0.00,WUHU216DAVISVP2,2013-05-30 20:56:00,
2013-05-30 17:01:00,88.0,59.9,30.07,SSE,155,4.0,12.0,39,0.00,,,0.00,WUHU216DAVISVP2,2013-05-30 21:01:00,
2013-05-30 17:06:00,88.4,58.7,30.07,East,90,2.0,12.0,37,0.00,,,0.00,WUHU216DAVISVP2,2013-05-30 21:06:00,
2013-05-30 17:11:00,88.6,58.1,30.07,SSW,205,6.0,16.0,36,0.00,,,0.00,WUHU216DAVISVP2,2013-05-30 21:11:00,
2013-05-30 17:16:00,88.4,58.7,30.07,SW,215,0.0,16.0,37,0.00,,,0.00,WUHU216DAVISVP2,2013-05-30 21:16:00,
2013-05-30 17:21:00,88.8,61.3,30.07,South,182,12.0,12.0,40,0.00,,,0.00,WUHU216DAVISVP2,2013-05-30 21:21:00,
2013-05-30 17:26:00,89.0,59.3,30.07,SE,125,0.0,18.0,37,0.00,,,0.00,WUHU216DAVISVP2,2013-05-30 21:26:00,
2013-05-30 17:31:00,88.7,59.0,30.07,ENE,77,6.0,18.0,37,0.00,,,0.00,WUHU216DAVISVP2,2013-05-30 21:31:00,
2013-05-30 17:36:00,88.1,58.5,30.06,SSW,195,14.0,18.0,37,0.00,,,0.00,WUHU216DAVISVP2,2013-05-30 21:36:00,
2013-05-30 17:41:00,87.6,59.5,30.06,SSW,198,2.0,18.0,39,0.00,,,0.00,WUHU216DAVISVP2,2013-05-30 21:41:00,
2013-05-30 17:46:00,87.4,58.6,30.06,East,82,4.0,16.0,38,0.00,,,0.00,WUHU216DAVISVP2,2013-05-30 21:46:00,
2013-05-30 17:51:00,87.3,58.5,30.06,SSW,203,4.0,16.0,38,0.00,,,0.00,WUHU216DAVISVP2,2013-05-30 21:51:00,
2013-05-30 17:56:00,87.1,59.8,30.06,SW,233,4.0,16.0,40,0.00,,,0.00,WUHU216DAVISVP2,2013-05-30 21:56:00,
2013-05-30 18:01:00,86.9,59.6,30.05,SSW,211,4.0,16.0,40,0.00,,,0.00,WUHU216DAVISVP2,2013-05-30 22:01:00,
2013-05-30 18:07:00,86.6,59.4,30.05,SSW,199,0.0,24.0,40,0.00,,,0.00,WUHU216DAVISVP2,2013-05-30 22:07:00,
2013-05-30 18:12:00,86.5,61.4,30.05,WNW,284,12.0,24.0,43,0.00,,,0.00,WUHU216DAVISVP2,2013-05-30 22:12:00,
2013-05-30 18:17:00,86.3,60.5,30.05,SSW,202,0.0,16.0,42,0.00,,,0.00,WUHU216DAVISVP2,2013-05-30 22:17:00,
2013-05-30 18:22:00,86.3,61.9,30.05,SW,226,8.0,16.0,44,0.00,,,0.00,WUHU216DAVISVP2,2013-05-30 22:22:00,
2013-05-30 18:27:00,86.1,61.0,30.04,SSE,158,8.0,20.0,43,0.00,,,0.00,WUHU216DAVISVP2,2013-05-30 22:27:00,
2013-05-30 18:32:00,85.8,61.4,30.04,NNE,27,10.0,20.0,44,0.00,,,0.00,WUHU216DAVISVP2,2013-05-30 22:32:00,
2013-05-30 18:37:00,85.5,62.4,30.04,South,178,2.0,16.0,46,0.00,,,0.00,WUHU216DAVISVP2,2013-05-30 22:37:00,
2013-05-30 18:42:00,85.4,61.7,30.04,SE,144,6.0,12.0,45,0.00,,,0.00,WUHU216DAVISVP2,2013-05-30 22:42:00,
2013-05-30 18:47:00,85.2,61.5,30.04,SW,235,6.0,10.0,45,0.00,,,0.00,WUHU216DAVISVP2,2013-05-30 22:47:00,
2013-05-30 18:52:00,85.2,62.2,30.04,SSE,163,6.0,12.0,46,0.00,,,0.00,WUHU216DAVISVP2,2013-05-30 22:52:00,
2013-05-30 18:57:00,85.1,60.8,30.04,South,169,2.0,14.0,44,0.00,,,0.00,WUHU216DAVISVP2,2013-05-30 22:57:00,
2013-05-30 19:02:00,84.9,59.9,30.04,West,281,0.0,14.0,43,0.00,,,0.00,WUHU216DAVISVP2,2013-05-30 23:02:00,
2013-05-30 19:07:00,84.8,59.8,30.04,NW,309,2.0,14.0,43,0.00,,,0.00,WUHU216DAVISVP2,2013-05-30 23:07:00,
2013-05-30 19:12:00,84.6,59.6,30.04,WSW,248,6.0,14.0,43,0.00,,,0.00,WUHU216DAVISVP2,2013-05-30 23:12:00,
2013-05-30 19:17:00,84.5,58.9,30.05,SW,214,4.0,14.0,42,0.00,,,0.00,WUHU216DAVISVP2,2013-05-30 23:17:00,
2013-05-30 19:22:00,84.5,59.6,30.05,SSW,208,4.0,14.0,43,0.00,,,0.00,WUHU216DAVISVP2,2013-05-30 23:22:00,
2013-05-30 19:27:00,84.4,60.1,30.05,South,176,4.0,10.0,44,0.00,,,0.00,WUHU216DAVISVP2,2013-05-30 23:27:00,
2013-05-30 19:32:00,84.2,59.9,30.04,SW,227,4.0,12.0,44,0.00,,,0.00,WUHU216DAVISVP2,2013-05-30 23:32:00,
2013-05-30 19:37:00,83.9,59.7,30.04,SE,128,2.0,12.0,44,0.00,,,0.00,WUHU216DAVISVP2,2013-05-30 23:37:00,
2013-05-30 19:42:00,83.7,60.1,30.05,South,182,0.0,8.0,45,0.00,,,0.00,WUHU216DAVISVP2,2013-05-30 23:42:00,
2013-05-30 19:47:00,83.5,60.0,30.05,SW,231,0.0,6.0,45,0.00,,,0.00,WUHU216DAVISVP2,2013-05-30 23:47:00,
2013-05-30 19:52:00,83.2,60.3,30.05,SSW,197,0.0,6.0,46,0.00,,,0.00,WUHU216DAVISVP2,2013-05-30 23:52:00,
2013-05-30 19:58:00,83.0,62.0,30.05,South,188,0.0,6.0,49,0.00,,,0.00,WUHU216DAVISVP2,2013-05-30 23:58:00,
2013-05-30 20:03:00,82.5,60.3,30.05,South,177,0.0,6.0,47,0.00,,,0.00,WUHU216DAVISVP2,2013-05-31 00:03:00,
2013-05-30 20:08:00,82.1,59.9,30.05,SSW,209,0.0,6.0,47,0.00,,,0.00,WUHU216DAVISVP2,2013-05-31 00:08:00,
2013-05-30 20:13:00,81.7,59.6,30.05,SSE,157,2.0,8.0,47,0.00,,,0.00,WUHU216DAVISVP2,2013-05-31 00:13:00,
2013-05-30 20:18:00,81.4,59.9,30.05,South,182,4.0,8.0,48,0.00,,,0.00,WUHU216DAVISVP2,2013-05-31 00:18:00,
2013-05-30 20:23:00,81.0,60.1,30.05,SSE,165,0.0,8.0,49,0.00,,,0.00,WUHU216DAVISVP2,2013-05-31 00:23:00,
2013-05-30 20:28:00,80.6,59.8,30.05,SSW,199,0.0,6.0,49,0.00,,,0.00,WUHU216DAVISVP2,2013-05-31 00:28:00,
2013-05-30 20:33:00,80.2,60.6,30.05,South,180,0.0,6.0,51,0.00,,,0.00,WUHU216DAVISVP2,2013-05-31 00:33:00,
2013-05-30 20:38:00,79.7,60.1,30.05,SSW,192,0.0,6.0,51,0.00,,,0.00,WUHU216DAVISVP2,2013-05-31 00:38:00,
2013-05-30 20:43:00,79.4,59.8,30.05,SSE,155,0.0,6.0,51,0.00,,,0.00,WUHU216DAVISVP2,2013-05-31 00:43:00,
2013-05-30 20:48:00,79.2,60.2,30.05,South,182,0.0,6.0,52,0.00,,,0.00,WUHU216DAVISVP2,2013-05-31 00:48:00,
2013-05-30 20:53:00,78.9,60.5,30.05,South,175,2.0,8.0,53,0.00,,,0.00,WUHU216DAVISVP2,2013-05-31 00:53:00,
2013-05-30 20:58:00,78.7,60.8,30.05,SSW,196,2.0,8.0,54,0.00,,,0.00,WUHU216DAVISVP2,2013-05-31 00:58:00,
2013-05-30 21:03:00,78.4,61.1,30.05,SSW,206,0.0,10.0,55,0.00,,,0.00,WUHU216DAVISVP2,2013-05-31 01:03:00,
2013-05-30 21:08:00,78.2,60.9,30.05,SE,134,0.0,10.0,55,0.00,,,0.00,WUHU216DAVISVP2,2013-05-31 01:08:00,
2013-05-30 21:13:00,77.9,61.6,30.05,SE,135,0.0,4.0,57,0.00,,,0.00,WUHU216DAVISVP2,2013-05-31 01:13:00,
2013-05-30 21:18:00,77.5,61.3,30.05,SSW,205,4.0,8.0,57,0.00,,,0.00,WUHU216DAVISVP2,2013-05-31 01:18:00,
2013-05-30 21:23:00,77.3,61.1,30.05,South,171,0.0,10.0,57,0.00,,,0.00,WUHU216DAVISVP2,2013-05-31 01:23:00,
2013-05-30 21:28:00,77.1,61.4,30.05,SSW,203,0.0,10.0,58,0.00,,,0.00,WUHU216DAVISVP2,2013-05-31 01:28:00,
2013-05-30 21:33:00,77.0,61.8,30.05,SSW,192,4.0,8.0,59,0.00,,,0.00,WUHU216DAVISVP2,2013-05-31 01:33:00,
2013-05-30 21:38:00,76.8,61.6,30.05,SSE,157,0.0,8.0,59,0.00,,,0.00,WUHU216DAVISVP2,2013-05-31 01:38:00,
2013-05-30 21:43:00,76.6,61.9,30.06,South,179,2.0,8.0,60,0.00,,,0.00,WUHU216DAVISVP2,2013-05-31 01:43:00,
2013-05-30 21:48:00,76.5,61.8,30.06,South,178,4.0,14.0,60,0.00,,,0.00,WUHU216DAVISVP2,2013-05-31 01:48:00,
2013-05-30 21:53:00,76.3,62.1,30.06,South,180,12.0,14.0,61,0.00,,,0.00,WUHU216DAVISVP2,2013-05-31 01:53:00,
2013-05-30 21:58:00,76.2,62.0,30.06,SE,134,0.0,12.0,61,0.00,,,0.00,WUHU216DAVISVP2,2013-05-31 01:58:00,
2013-05-30 22:03:00,76.0,62.3,30.06,SSW,209,4.0,12.0,62,0.00,,,0.00,WUHU216DAVISVP2,2013-05-31 02:03:00,
2013-05-30 22:08:00,75.9,62.2,30.06,SSW,199,0.0,10.0,62,0.00,,,0.00,WUHU216DAVISVP2,2013-05-31 02:08:00,
2013-05-30 22:14:00,75.9,62.6,30.07,SSW,194,0.0,8.0,63,0.00,,,0.00,WUHU216DAVISVP2,2013-05-31 02:14:00,
2013-05-30 22:19:00,75.9,62.6,30.07,SSE,157,2.0,8.0,63,0.00,,,0.00,WUHU216DAVISVP2,2013-05-31 02:19:00,
2013-05-30 22:24:00,75.9,62.6,30.07,SSE,163,0.0,6.0,63,0.00,,,0.00,WUHU216DAVISVP2,2013-05-31 02:24:00,
2013-05-30 22:29:00,75.9,62.6,30.07,South,177,2.0,8.0,63,0.00,,,0.00,WUHU216DAVISVP2,2013-05-31 02:29:00,
2013-05-30 22:34:00,75.8,62.5,30.07,South,184,0.0,8.0,63,0.00,,,0.00,WUHU216DAVISVP2,2013-05-31 02:34:00,
2013-05-30 22:39:00,75.7,62.9,30.07,SSE,161,2.0,6.0,64,0.00,,,0.00,WUHU216DAVISVP2,2013-05-31 02:39:00,
2013-05-30 22:44:00,75.6,62.8,30.07,South,189,0.0,10.0,64,0.00,,,0.00,WUHU216DAVISVP2,2013-05-31 02:44:00,
2013-05-30 22:49:00,75.5,63.1,30.07,South,169,0.0,10.0,65,0.00,,,0.00,WUHU216DAVISVP2,2013-05-31 02:49:00,
2013-05-30 22:54:00,75.3,62.9,30.07,SE,137,0.0,10.0,65,0.00,,,0.00,WUHU216DAVISVP2,2013-05-31 02:54:00,
2013-05-30 22:59:00,75.2,63.3,30.07,South,178,2.0,8.0,66,0.00,,,0.00,WUHU216DAVISVP2,2013-05-31 02:59:00,
2013-05-30 23:04:00,75.0,63.1,30.07,SSW,207,0.0,6.0,66,0.00,,,0.00,WUHU216DAVISVP2,2013-05-31 03:04:00,
2013-05-30 23:09:00,74.8,62.9,30.07,SSE,168,6.0,8.0,66,0.00,,,0.00,WUHU216DAVISVP2,2013-05-31 03:09:00,
2013-05-30 23:14:00,74.7,62.8,30.07,SSE,157,0.0,10.0,66,0.00,,,0.00,WUHU216DAVISVP2,2013-05-31 03:14:00,
2013-05-30 23:19:00,74.6,63.1,30.07,SSE,166,6.0,10.0,67,0.00,,,0.00,WUHU216DAVISVP2,2013-05-31 03:19:00,
2013-05-30 23:24:00,74.4,62.9,30.07,South,184,2.0,8.0,67,0.00,,,0.00,WUHU216DAVISVP2,2013-05-31 03:24:00,
2013-05-30 23:29:00,74.3,63.3,30.07,SSE,166,8.0,8.0,68,0.00,,,0.00,WUHU216DAVISVP2,2013-05-31 03:29:00,
2013-05-30 23:34:00,74.1,63.1,30.07,SSW,200,6.0,8.0,68,0.00,,,0.00,WUHU216DAVISVP2,2013-05-31 03:34:00,
2013-05-30 23:39:00,74.0,63.0,30.07,WSW,246,2.0,12.0,68,0.00,,,0.00,WUHU216DAVISVP2,2013-05-31 03:39:00,
2013-05-30 23:44:00,73.9,63.3,30.07,SSW,204,8.0,12.0,69,0.00,,,0.00,WUHU216DAVISVP2,2013-05-31 03:44:00,
2013-05-30 23:49:00,74.1,63.5,30.07,South,191,2.0,12.0,69,0.00,,,0.00,WUHU216DAVISVP2,2013-05-31 03:49:00,
2013-05-30 23:54:00,74.2,63.2,30.07,SSE,153,8.0,16.0,68,0.00,,,0.00,WUHU216DAVISVP2,2013-05-31 03:54:00,